Terminal Aerodrome Forecast
Issued by NWS Columbia, SC

Home | Current Version | Previous Version | Text Only | Print | Product List | Glossary On
Versions: 1 2 3 4 5 6 7 8 9 10 11 12 13 14 15 16 17 18 19 20 21 22 23 24 25 26 27 28 29 30 31 32 33 34 35 36 37 38 39 40 41 42 43 44 45 46 47
000
FTAK31 PAJN 120017 AAA
TAFAGS
TAF AMD
PAGS 120017Z 1200/1224 12005KT P6SM VCSH SCT020 OVC060
      TEMPO 1200/1204 00000KT 6SM BR SCT008 BKN020 OVC050
     FM120600 14005KT 6SM -RA BR BKN015 OVC030
     FM122000 11005KT P6SM VCSH SCT015 OVC040
      AMD LTD TO CLD VIS AND WIND=

USA.gov is the U.S. government's official web portal to all federal, state and local government web resources and services.